CYGFM02 (41886 NORAD) Tracking and Keplerian Element Data

This shows tracking and keplerian element data for the satellite.

Feedback or suggestion? Click here.




ElementValue
Catalog41886
NameCYGFM02
Epoch Orbit41495
Epoch Day160.20884335
Epoch Year2024
RAAN344.3561
Inclination34.954
Eccentricity0.001137
Argument of Perigee127.4688
Mean Anonmoly232.7063
Mean Motion15.28069149
Decay Rate0.00014541
L11 41886U 16078C 24160.20884335 .00014541 00000+0 51737-3 0 9995
L22 41886 34.9540 344.3561 0011370 127.4688 232.7063 15.28069149414959



Live tracking and technical data element details for CYGFM02 (NORAD 41886). CYGFM02 can be tracked NOW for your location showing map with azimuth and elevation plus other details from your city location.







IsCatalogInMostPopularTable: catalog: 41886, numindb: 690
Update: records affected: 1



GetName: 41886 CYGFM02

Hit Count: updated at: Tue, 18 Jun 2024 00:24:08 GMT